Location: Unspecified
(0.0000°N, 0.0000°E)
Time: 18:18:44
(UTC+00:00)

Vanguard 2 - Visible Passes

Search period start: 18 April 2019 00:00
Search period end: 28 April 2019 00:00
Orbit: 553 x 2938 km, 32.9° (Epoch: 17 April)

Date Brightness Start Highest point End Pass type
(mag) Time Alt. Az. Time Alt. Az. Time Alt. Az.
22 Apr 10.6 19:56:34 10° S 19:59:00 12° S 19:59:00 12° S visible
23 Apr 10.5 20:13:06 10° SSW 20:16:11 15° S 20:16:11 15° S visible
24 Apr 10.7 18:20:22 10° SSW 18:24:27 12° S 18:28:02 10° SSE visible
24 Apr 10.4 20:30:15 10° SSW 20:33:25 18° SSW 20:33:25 18° SSW visible
25 Apr 10.4 18:37:27 10° SSW 18:43:47 15° SSE 18:48:51 10° SE visible
25 Apr 10.5 20:47:43 10° SW 20:50:42 19° SSW 20:50:42 19° SSW visible
26 Apr 10.1 18:54:44 10° SSW 19:02:55 20° SSE 19:06:37 16° SE visible
26 Apr 10.6 21:05:29 10° SW 21:08:05 19° SW 21:08:05 19° SW visible
27 Apr 9.7 19:12:10 10° SSW 19:21:50 27° SSE 19:24:04 24° SE visible
27 Apr 10.7 21:23:33 10° SW 21:25:31 17° SW 21:25:31 17° SW visible
